Spokane, WA
on Wednesday, January 30, 2013

Wednesday
Previous Day Next Day
Daily Summary
 ActualAverageRecord
Temperature
Mean Temperature °F 31°F  
Max Temperature 43°F 36°F 59°F (1971)
Min Temperature 31°F 26°F -19°F (1950)
Degree Days
Heating Degree Days 28 34  
Month to date heating degree days 1215 1065  
Since 1 July heating degree days 3640 3899  
Cooling Degree Days 0 0  
Month to date cooling degree days 0 0  
Year to date cooling degree days 0 0  
Moisture
Dew Point 32°F   
Average Humidity 85    
Maximum Humidity 100    
Minimum Humidity 70    
Precipitation
Precipitation 0.00 in 0.05 in 0.46 in (1952)
Month to date precipitation 1.63 1.74  
Year to date precipitation 1.63 1.74  
Snow
Snow 0.00 in 0.20 in 5.00 in (1969)
Month to date snowfall 14.2 11.1  
Since 1 July snowfall 38.2 33.2  
Snow Depth 2.00 in   
Wind
Wind Speed 8 mph   
Max Wind Speed 15 mph   
Max Gust Speed mph   
Visibility 8 miles   
Events Fog   

Key: T is trace of precipitation, MM is missing value
Source: NWS Daily Summary
Time(PST)TemperatureDew PointHumidity Pressure Visibility Wind DirectionWind SpeedGust SpeedPrecipitationEvents Conditions
12:53 AM 34.0°F 32.0°F 92% 30.14 in 7.0 miles SW 6.9 mph - N/A   Overcast
1:53 AM 34.0°F 32.0°F 92% 30.14 in 7.0 miles SSW 12.7 mph - N/A   Overcast
2:53 AM 33.1°F 30.9°F 92% 30.14 in 7.0 miles SW 12.7 mph - N/A   Overcast
3:53 AM 33.1°F 30.9°F 92% 30.13 in 7.0 miles SW 15.0 mph - N/A   Overcast
4:53 AM 32.0°F 30.0°F 92% 30.13 in 7.0 miles SW 10.4 mph - N/A   Overcast
5:06 AM 32.0°F 30.2°F 93% 30.07 in 10.0 miles SW 11.5 mph - N/A   Scattered Clouds
5:44 AM 30.2°F 28.4°F 93% 30.09 in 10.0 miles SW 6.9 mph - N/A   Mostly Cloudy
5:53 AM 30.9°F 28.9°F 92% 30.16 in 10.0 miles SW 5.8 mph - N/A   Overcast
6:53 AM 32.0°F 30.0°F 92% 30.15 in 7.0 miles SW 12.7 mph - N/A   Overcast
7:53 AM 33.1°F 30.9°F 92% 30.17 in 10.0 miles SW 10.4 mph - N/A   Overcast
8:53 AM 33.1°F 30.9°F 92% 30.19 in 10.0 miles SSW 6.9 mph - N/A   Overcast
9:53 AM 34.0°F 32.0°F 92% 30.19 in 10.0 miles SW 11.5 mph - N/A   Overcast
9:59 AM 33.8°F 32.0°F 93% 30.14 in 2.0 miles SSW 9.2 mph - N/A Fog Patches of Fog
10:16 AM 33.8°F 32.0°F 93% 30.14 in 0.8 miles SW 11.5 mph - N/A   Overcast
10:47 AM 33.8°F 33.8°F 100% 30.14 in 2.0 miles SSW 10.4 mph - N/A   Overcast
10:53 AM 34.0°F 33.1°F 96% 30.20 in 6.0 miles SW 9.2 mph - N/A   Overcast
11:10 AM 35.6°F 33.8°F 93% 30.15 in 8.0 miles SSW 9.2 mph - N/A   Overcast
11:53 AM 35.1°F 33.1°F 92% 30.20 in 10.0 miles SW 9.2 mph - N/A   Overcast
12:25 PM 35.6°F 33.8°F 93% 30.14 in 10.0 miles SW 15.0 mph - N/A   Scattered Clouds
12:53 PM 37.0°F 34.0°F 89% 30.19 in 10.0 miles SSW 8.1 mph - N/A   Scattered Clouds
1:53 PM 42.1°F 34.0°F 73% 30.19 in 10.0 miles Calm Calm - N/A   Scattered Clouds
2:53 PM 41.0°F 34.0°F 76% 30.20 in 10.0 miles WSW 3.5 mph - N/A   Scattered Clouds
3:53 PM 39.9°F 33.1°F 77% 30.22 in 10.0 miles WNW 5.8 mph - N/A   Scattered Clouds
4:53 PM 37.0°F 33.1°F 86% 30.23 in 10.0 miles Calm Calm - N/A   Mostly Cloudy
5:53 PM 36.0°F 33.1°F 89% 30.24 in 10.0 miles SE 3.5 mph - N/A   Scattered Clouds
6:53 PM 34.0°F 32.0°F 92% 30.24 in 10.0 miles Calm Calm - N/A   Mostly Cloudy
7:53 PM 37.0°F 33.1°F 86% 30.24 in 10.0 miles SSW 9.2 mph - N/A   Mostly Cloudy
8:53 PM 36.0°F 34.0°F 93% 30.23 in 10.0 miles South 9.2 mph - N/A   Mostly Cloudy
9:53 PM 35.1°F 33.1°F 92% 30.24 in 10.0 miles SSW 4.6 mph - N/A   Mostly Cloudy
10:12 PM 35.6°F 33.8°F 93% 30.18 in 10.0 miles South 6.9 mph - N/A   Overcast
10:27 PM 35.6°F 33.8°F 93% 30.18 in 2.0 miles South 11.5 mph - N/A   Overcast
10:53 PM 34.0°F 33.1°F 96% 30.24 in 3.0 miles SSW 12.7 mph - N/A   Mostly Cloudy
11:53 PM 35.1°F 33.1°F 92% 30.26 in 3.0 miles SSW 6.9 mph - N/A   Mostly Cloudy
Moon Phase
Jan. 30 Feb. 03 Feb. 10 Feb. 17 Feb. 25
Sunrise:07:18 AM (PST) Moon Rise:09:14 PM (PST)
Sunset:04:48 PM (PST) Moon Set:08:29 AM (PST)

Copyright © 2014 The Weather Underground, Inc.